Wind_Speed
9 9 8 8 7 7 6 6 6 6 6 7 8 8 9 9 9 10 10 11 11 11 12 12 12 13 14 14 14 14 15 15 15 16 17 18 19 20 21 22 22 23 24
8 9 8 7 7 6 4 4 5 5 6 7 8 8 8 9 9 9 10 11 11 11 12 12 13 13 14 14 14 15 15 15 16 17 18 19 20 20 21 22 23 24 25
7 7 6 5 5 4 3 3 3 4 5 6 7 7 7 8 8 8 9 10 11 12 12 13 13 14 14 15 15 15 16 16 17 17 18 19 21 21 22 22 23 24 25
7 6 5 4 2 2 1 2 2 3 4 5 6 6 7 7 8 8 9 10 11 12 13 13 14 15 16 16 16 17 17 17 18 18 19 20 21 22 23 24 24 25 26
6 6 4 3 2 1 1 1 2 3 4 5 6 6 7 7 7 8 9 10 11 12 13 14 15 16 17 17 17 17 18 18 19 20 20 20 21 22 23 25 25 26 27
6 5 4 3 2 0 1 1 2 3 4 5 5 6 7 8 8 9 10 11 12 13 14 15 16 17 18 19 19 19 20 20 21 21 22 23 24 24 25 26 27 28 28
5 4 3 2 1 1 2 2 3 4 4 5 6 7 7 8 9 10 11 12 13 14 15 16 17 19 20 20 21 21 21 22 22 23 24 25 26 26 27 27 28 29 30
3 2 1 0 1 2 2 3 3 4 4 5 6 7 8 9 10 11 12 13 14 15 16 17 18 20 21 21 22 23 24 24 24 25 26 26 27 28 29 29 30 31 32
2 0 1 2 2 2 3 3 4 4 5 6 7 8 9 10 11 12 13 14 16 17 18 19 20 21 22 24 25 26 26 26 27 27 28 28 28 29 30 31 32 32 33
1 1 2 2 3 3 3 3 4 4 5 6 8 9 10 11 12 13 14 16 17 18 19 20 22 23 25 26 28 28 29 29 29 29 30 30 30 31 32 32 33 34 34
1 2 2 3 3 4 4 4 5 5 6 7 9 10 11 13 14 15 16 17 18 20 21 22 24 26 28 29 30 30 31 31 32 32 32 32 32 32 33 34 34 35 35
2 3 3 3 4 5 5 6 6 7 8 9 11 12 13 14 15 16 17 19 20 22 23 25 27 28 29 31 32 33 33 33 34 34 34 34 34 34 35 35 36 36 36
3 3 4 5 5 6 7 8 8 9 11 12 13 14 15 16 17 18 19 21 23 25 26 28 29 30 31 33 34 35 35 35 35 35 35 35 36 36 36 36 36 36 36
5 5 6 7 7 7 8 9 10 11 13 14 15 15 16 17 19 20 22 23 25 27 29 30 31 32 33 34 36 36 37 37 37 37 37 37 37 36 36 35 35 35 35
7 7 8 8 9 10 11 12 12 13 14 16 17 17 19 20 21 22 24 25 27 28 30 32 32 33 34 36 37 38 38 38 38 39 38 38 37 37 36 35 35 35 35
10 10 10 11 11 12 13 14 15 16 17 18 19 20 21 22 23 25 26 28 30 31 32 33 34 35 36 38 38 38 39 39 40 39 39 38 38 37 36 36 35 35 35
12 12 13 13 14 15 16 16 17 18 19 20 21 22 23 24 25 27 28 30 31 32 33 35 36 37 37 38 39 40 40 41 41 40 39 38 38 37 37 36 35 35 34
14 14 15 16 17 18 18 19 20 21 22 23 23 24 25 26 27 29 30 32 33 34 36 37 37 37 37 38 40 41 41 41 41 41 39 38 38 37 37 35 34 34 34
17 17 17 17 18 19 20 21 22 23 24 25 26 26 28 29 30 32 33 34 35 37 38 38 38 38 39 40 41 42 42 41 41 41 40 39 38 38 36 35 33 33 33
17 18 19 20 21 22 22 23 24 25 27 28 29 30 31 32 33 34 35 36 38 39 39 39 40 40 41 42 42 42 42 42 41 41 41 39 38 37 36 34 33 33 33
19 20 21 22 22 24 25 26 27 28 29 30 31 33 34 35 36 36 37 38 39 41 41 41 41 42 43 43 43 44 43 42 41 41 40 39 38 36 35 34 33 32 32
22 23 24 24 25 26 28 29 30 31 32 33 35 36 36 37 38 39 40 40 41 42 42 42 43 43 44 45 44 44 44 43 42 40 39 38 37 35 34 33 33 32 31
26 26 28 29 29 30 31 32 33 34 35 36 38 39 39 40 40 42 42 43 43 43 44 44 44 45 45 46 45 45 44 43 41 40 38 37 36 35 33 32 31 30 30
29 30 32 32 32 33 34 35 36 37 38 39 40 41 41 42 43 44 45 45 45 46 46 46 46 47 47 47 46 45 44 43 41 40 38 37 36 34 33 31 30 30 29
31 32 33 34 35 35 36 37 38 39 40 41 42 43 44 45 45 46 47 47 47 48 48 48 48 48 48 47 47 46 44 43 41 39 37 36 35 34 32 31 30 29 28
32 34 35 36 37 38 39 40 41 42 43 44 45 46 46 47 48 49 49 49 49 49 50 49 49 49 49 48 47 45 44 43 41 38 37 36 34 33 31 30 29 28 28
Wind_Direction
197 199 204 211 228 245 265 279 283 290 298 306 312 314 319 319 315 314 314 315 318 317 315 314 313 311 310 307 302 297 293 288 283 278 275 271 269 267 264 263 263 260 257
185 191 201 210 222 238 259 273 282 292 299 307 314 317 319 317 317 319 320 322 323 322 320 320 319 317 314 311 308 303 298 294 289 284 280 276 272 269 266 263 262 262 259
163 162 173 184 205 223 255 274 289 301 309 318 324 323 322 322 324 325 326 327 326 325 325 324 323 322 321 318 314 309 303 298 292 287 283 280 276 273 269 266 263 262 261
136 140 147 163 187 228 256 282 302 312 321 330 330 327 327 328 329 330 331 332 332 330 328 326 325 324 323 321 317 313 308 303 298 292 287 283 279 277 274 270 267 264 262
122 125 134 146 156 171 247 296 308 320 325 329 332 333 335 337 338 337 336 335 334 332 331 329 327 325 323 321 318 315 311 305 301 296 292 287 283 279 276 274 270 266 264
122 123 129 136 135 150 296 302 317 322 324 328 333 339 343 344 344 343 341 338 335 333 332 330 328 327 325 321 318 316 312 308 303 299 295 291 286 282 279 276 273 270 266
132 134 134 127 76 335 307 315 320 322 324 328 336 342 344 345 345 344 343 341 338 336 332 331 330 329 327 324 321 318 316 312 308 303 299 294 289 286 282 278 275 272 268
134 137 138 32 320 296 296 307 313 315 320 327 333 337 340 342 344 343 342 340 339 337 335 333 331 330 329 327 324 321 318 314 311 307 303 298 293 288 284 280 276 272 270
119 109 304 296 291 284 288 297 302 308 316 325 330 332 335 337 338 337 338 338 337 336 335 334 332 331 330 328 325 323 320 316 313 310 306 302 297 292 287 283 279 275 271
72 302 288 282 284 286 287 289 296 309 319 324 325 328 330 331 332 333 335 335 335 333 332 331 330 328 327 326 324 322 320 317 315 312 308 305 300 296 291 287 282 277 273
246 282 277 272 279 284 286 291 303 314 319 321 320 322 325 326 326 327 329 330 330 330 329 327 326 325 325 325 324 321 319 317 316 313 310 307 303 298 294 289 285 280 274
259 262 266 272 280 289 295 302 309 313 315 315 315 317 318 319 320 321 322 322 323 324 323 322 322 323 323 324 324 322 320 318 316 314 312 308 305 301 297 291 286 282 277
284 284 289 292 294 296 299 301 305 307 308 308 308 310 312 313 315 316 317 317 317 318 318 318 319 320 320 321 322 321 319 318 317 315 313 310 307 303 299 293 288 283 279
300 301 300 298 296 295 296 297 298 298 299 299 300 302 306 309 310 311 314 315 314 315 316 316 316 317 317 318 320 320 319 318 317 316 314 311 308 304 301 296 290 285 280
304 304 300 296 293 292 291 291 291 292 293 294 295 297 301 305 306 308 310 312 313 314 315 314 314 314 315 316 318 319 319 318 317 316 314 312 309 305 301 297 292 287 282
301 299 295 291 288 287 285 285 286 287 288 290 293 296 299 302 304 306 308 310 312 313 314 314 313 313 313 314 315 317 318 317 317 315 314 312 309 305 301 297 293 288 283
292 291 288 285 283 281 281 281 282 284 287 290 292 295 298 300 302 304 306 309 311 312 313 313 313 313 313 314 315 316 316 316 316 314 313 311 308 305 302 298 294 289 285
287 283 280 279 278 278 278 279 281 284 286 289 291 294 297 299 301 303 304 306 308 310 312 313 312 312 312 313 315 315 315 315 315 314 312 310 308 305 302 298 294 291 287
282 280 278 277 277 277 277 279 281 283 286 288 290 292 295 297 299 301 303 304 306 308 309 311 311 312 312 313 314 314 315 315 314 313 312 310 308 305 302 298 294 291 288
279 280 280 281 280 280 280 281 282 285 287 288 289 290 293 295 298 299 301 303 305 306 308 309 310 311 311 312 314 314 314 314 313 312 310 308 306 304 301 298 295 291 288
279 282 283 283 283 283 283 283 284 285 287 289 290 291 292 294 296 298 300 303 304 305 307 308 309 310 311 311 312 313 313 313 312 310 308 307 305 303 301 298 296 292 289
281 283 283 284 285 285 285 285 285 285 286 288 290 291 292 294 296 298 300 301 303 304 305 306 307 309 310 311 311 311 311 311 311 310 307 305 304 303 301 298 296 293 289
286 286 285 286 287 286 286 286 286 287 288 289 290 291 293 295 297 298 299 300 302 303 304 305 306 307 308 309 308 308 308 309 310 308 306 305 303 302 300 298 296 293 291
283 285 286 287 287 286 287 287 287 287 288 290 291 291 293 294 296 297 298 299 300 301 302 303 304 305 306 306 306 306 307 308 308 307 305 303 302 301 300 298 295 293 292
284 285 285 286 286 286 286 287 288 288 289 291 291 291 292 294 295 296 297 298 298 299 300 300 301 302 303 304 304 305 305 306 306 305 303 302 302 300 299 297 295 293 293
283 284 284 285 285 285 286 287 287 288 289 290 290 290 292 293 293 294 295 296 296 297 298 298 299 300 301 302 303 303 303 303 304 303 302 301 301 299 298 297 296 295 294
Height
5862 5864 5867 5869 5871 5873 5873 5873 5873 5873 5873 5873 5872 5871 5870 5869 5868 5866 5864 5863 5862 5860 5859 5858 5856 5855 5853 5852 5850 5849 5848 5848 5847 5847 5847 5847 5846 5846 5846 5846 5847 5847 5849
5861 5864 5865 5868 5870 5871 5871 5872 5872 5872 5871 5871 5870 5869 5868 5867 5865 5863 5862 5860 5859 5857 5856 5855 5853 5851 5850 5848 5847 5845 5844 5843 5843 5842 5842 5842 5842 5841 5841 5841 5841 5842 5842
5861 5862 5864 5866 5868 5869 5870 5870 5870 5870 5869 5869 5868 5867 5866 5864 5863 5861 5860 5858 5856 5855 5853 5851 5850 5848 5847 5845 5843 5842 5840 5839 5838 5838 5837 5836 5836 5836 5836 5836 5836 5836 5836
5861 5862 5865 5866 5867 5868 5868 5868 5868 5868 5868 5867 5866 5865 5864 5862 5861 5859 5858 5856 5854 5852 5850 5849 5847 5845 5844 5842 5840 5838 5836 5835 5834 5833 5832 5831 5830 5830 5829 5830 5829 5829 5830
5861 5862 5864 5865 5866 5866 5866 5866 5866 5866 5866 5865 5864 5863 5862 5860 5859 5857 5856 5854 5852 5850 5848 5846 5844 5842 5840 5838 5836 5834 5832 5830 5829 5827 5826 5825 5824 5823 5823 5823 5822 5822 5822
5861 5862 5863 5864 5865 5865 5865 5865 5865 5864 5864 5863 5862 5861 5860 5858 5857 5855 5853 5851 5849 5847 5845 5843 5841 5838 5836 5834 5832 5829 5827 5825 5823 5822 5820 5819 5818 5817 5816 5815 5815 5815 5815
5860 5862 5863 5863 5863 5864 5864 5863 5863 5863 5862 5861 5860 5859 5858 5856 5854 5852 5851 5849 5847 5845 5842 5840 5838 5835 5832 5830 5827 5824 5822 5820 5818 5816 5814 5812 5810 5809 5808 5808 5807 5806 5806
5860 5861 5862 5862 5862 5862 5862 5862 5861 5861 5860 5859 5858 5857 5855 5854 5852 5850 5848 5846 5844 5842 5839 5837 5834 5831 5828 5825 5822 5819 5816 5814 5811 5809 5806 5804 5802 5801 5799 5799 5798 5797 5797
5859 5860 5860 5861 5861 5861 5860 5860 5860 5859 5858 5857 5856 5854 5853 5851 5849 5848 5846 5843 5841 5839 5836 5833 5830 5827 5824 5821 5817 5814 5811 5808 5805 5802 5799 5796 5793 5791 5790 5789 5788 5788 5787
5858 5858 5859 5859 5859 5859 5858 5858 5858 5857 5856 5854 5853 5852 5850 5848 5846 5845 5842 5840 5837 5835 5832 5829 5826 5823 5820 5816 5812 5809 5805 5801 5798 5794 5791 5788 5785 5782 5780 5778 5777 5776 5776
5857 5857 5857 5857 5857 5856 5856 5856 5855 5854 5853 5852 5850 5849 5847 5845 5843 5841 5839 5836 5834 5831 5828 5825 5821 5818 5814 5811 5807 5803 5799 5794 5791 5787 5783 5779 5776 5773 5770 5768 5766 5764 5764
5855 5855 5855 5854 5854 5853 5853 5852 5851 5850 5849 5848 5847 5846 5844 5842 5840 5838 5835 5833 5830 5827 5824 5820 5817 5813 5809 5805 5800 5796 5791 5787 5783 5779 5774 5770 5767 5763 5760 5757 5754 5752 5751
5851 5851 5851 5850 5850 5850 5849 5848 5848 5847 5846 5845 5843 5842 5840 5838 5836 5833 5831 5828 5825 5822 5818 5815 5811 5807 5803 5798 5794 5789 5784 5779 5775 5770 5765 5761 5757 5753 5749 5746 5743 5741 5739
5847 5847 5847 5846 5846 5846 5845 5845 5844 5843 5842 5841 5840 5838 5836 5834 5831 5829 5826 5823 5819 5816 5812 5808 5804 5800 5796 5791 5787 5782 5776 5771 5766 5761 5756 5751 5747 5742 5738 5735 5732 5729 5728
5843 5843 5842 5842 5842 5841 5841 5841 5840 5839 5838 5837 5835 5833 5831 5828 5826 5823 5820 5817 5813 5809 5806 5802 5797 5793 5789 5784 5779 5774 5768 5763 5757 5752 5746 5741 5737 5732 5728 5724 5721 5718 5716
5838 5838 5838 5837 5837 5837 5837 5836 5835 5834 5833 5831 5829 5827 5825 5822 5820 5817 5814 5810 5806 5802 5798 5794 5790 5785 5780 5776 5771 5765 5760 5754 5748 5743 5737 5732 5727 5722 5718 5714 5711 5708 5705
5834 5834 5833 5833 5832 5832 5831 5831 5830 5828 5827 5825 5823 5821 5818 5816 5813 5810 5806 5803 5799 5795 5791 5786 5782 5777 5772 5767 5762 5756 5751 5745 5739 5733 5727 5722 5717 5712 5707 5703 5700 5697 5694
5830 5829 5828 5828 5827 5826 5826 5825 5823 5822 5820 5818 5816 5814 5811 5808 5805 5802 5799 5795 5791 5787 5782 5778 5773 5768 5763 5758 5752 5747 5741 5735 5729 5723 5718 5712 5707 5701 5697 5693 5690 5686 5683
5825 5824 5824 5823 5822 5821 5819 5818 5817 5815 5813 5810 5808 5806 5803 5800 5797 5794 5790 5786 5782 5778 5773 5769 5764 5759 5754 5748 5743 5737 5731 5725 5719 5713 5707 5702 5697 5691 5687 5683 5679 5676 5673
5819 5818 5818 5817 5815 5814 5813 5811 5809 5807 5805 5803 5800 5797 5794 5791 5788 5785 5781 5777 5773 5768 5764 5759 5754 5749 5744 5738 5732 5726 5721 5715 5709 5703 5697 5691 5687 5681 5676 5673 5669 5666 5663
5812 5811 5811 5809 5808 5806 5805 5803 5801 5799 5797 5794 5791 5789 5785 5782 5779 5775 5771 5767 5763 5758 5754 5749 5744 5739 5733 5728 5722 5716 5710 5705 5699 5693 5687 5681 5676 5671 5667 5662 5659 5655 5652
5803 5803 5802 5801 5800 5798 5796 5795 5793 5790 5788 5785 5782 5779 5775 5772 5768 5765 5761 5756 5752 5747 5743 5738 5733 5727 5722 5717 5711 5705 5699 5694 5689 5683 5677 5671 5666 5661 5657 5652 5649 5645 5642
5795 5794 5793 5792 5791 5789 5787 5785 5783 5780 5777 5774 5771 5768 5764 5760 5757 5753 5749 5745 5740 5736 5731 5726 5722 5717 5711 5705 5700 5694 5689 5683 5678 5672 5666 5661 5656 5651 5647 5643 5639 5635 5632
5786 5785 5784 5782 5781 5779 5777 5774 5772 5769 5766 5763 5760 5756 5753 5749 5745 5741 5737 5733 5728 5723 5719 5714 5709 5704 5699 5694 5688 5683 5677 5672 5666 5661 5656 5651 5646 5642 5637 5633 5629 5626 5623
5777 5775 5774 5772 5770 5768 5766 5764 5761 5758 5754 5751 5747 5744 5740 5736 5732 5728 5724 5720 5715 5710 5706 5701 5696 5692 5687 5682 5676 5671 5666 5660 5655 5650 5645 5640 5636 5632 5628 5624 5620 5616 5613
5768 5766 5764 5761 5759 5757 5754 5752 5749 5745 5742 5738 5735 5730 5727 5723 5719 5715 5711 5706 5702 5697 5692 5688 5683 5678 5674 5669 5664 5658 5653 5649 5644 5640 5635 5630 5626 5622 5618 5614 5611 5607 5604